FW7812 Weather Reports


Display with metric or nautical units.
time (UTC)temp
F
wind
direction
speed
MPH
gust
MPH
rain 1hr
in
rain 24hr
in
rain mn
in
humidity
%
barometer
mb
20260504081720 39 9 0.0 0.0 0.00 0.00 0.00 93 1018.6
20260504081216 40 9 0.0 1.0 0.00 0.00 0.00 93 1018.7
20260504080713 40 9 0.0 0.0 0.00 0.00 0.00 93 1018.8
20260504080209 39 9 0.0 0.0 0.00 0.00 0.00 93 1018.7
20260504070137 40 9 0.0 0.0 0.00 0.00 0.00 92 1018.8
20260504050526 42 9 0.0 0.0 0.00 0.00 0.00 90 1019.6
20260504050023 42 9 0.0 0.0 0.00 0.00 0.00 90 1019.5
20260504045520 42 9 0.0 0.0 0.00 0.00 0.00 90 1019.3
20260504045015 42 9 0.0 1.0 0.00 0.00 0.00 89 1019.5
20260504044513 42 9 0.0 0.0 0.00 0.00 0.00 89 1019.3
20260504044009 43 9 0.0 0.0 0.00 0.00 0.00 89 1019.4
20260504043506 43 9 0.0 0.0 0.00 0.00 0.00 89 1019.4
20260504043004 43 9 0.0 0.0 0.00 0.00 0.00 88 1019.3
20260504042500 43 9 0.0 0.0 0.00 0.00 0.00 88 1019.1
20260504041957 43 9 0.0 0.0 0.00 0.00 0.00 88 1019.3
20260504041453 43 9 0.0 0.0 0.00 0.00 0.00 87 1019.1
20260504040949 44 9 0.0 1.0 0.00 0.00 0.00 87 1019.1
20260504040447 44 9 0.0 1.0 0.00 0.00 0.00 87 1019.1
20260504035943 44 9 0.0 0.0 0.00 0.00 0.00 88 1019.1
20260504035441 44 9 0.0 0.0 0.00 0.00 0.00 87 1019.0
20260504034937 44 9 0.0 1.0 0.00 0.00 0.00 87 1018.9
20260504034434 44 9 0.0 0.0 0.00 0.00 0.00 87 1018.7
20260504033931 44 9 0.0 0.0 0.00 0.00 0.00 86 1018.8
20260504033429 44 9 0.0 0.0 0.00 0.00 0.00 86 1018.7
20260504032926 44 9 0.0 1.0 0.00 0.00 0.00 85 1018.6
20260504032423 44 9 0.0 0.0 0.00 0.00 0.00 85 1018.5
20260504031919 45 9 0.0 0.0 0.00 0.00 0.00 85 1018.9
20260504031417 45 9 0.0 0.0 0.00 0.00 0.00 85 1019.2
20260504030913 45 9 0.0 0.0 0.00 0.00 0.00 84 1018.9
20260504030410 45 9 0.0 0.0 0.00 0.00 0.00 85 1018.8
20260504025906 45 9 0.0 0.0 0.00 0.00 0.00 84 1018.8
20260504025403 46 9 0.0 0.0 0.00 0.00 0.00 84 1019.0
20260504024900 46 9 0.0 0.0 0.00 0.00 0.00 84 1019.0
20260504024356 46 9 0.0 0.0 0.00 0.00 0.00 83 1019.0
20260504023854 46 9 0.0 0.0 0.00 0.00 0.00 83 1018.9
20260504023350 46 9 0.0 0.0 0.00 0.00 0.00 84 1018.9
20260504022846 47 9 0.0 0.0 0.00 0.00 0.00 83 1018.9
20260504022343 47 9 0.0 0.0 0.00 0.00 0.00 82 1018.8
20260504021839 47 9 0.0 0.0 0.00 0.00 0.00 81 1018.7
20260504021337 48 9 0.0 0.0 0.00 0.00 0.00 80 1018.7
20260504020834 48 9 0.0 0.0 0.00 0.00 0.00 79 1018.6
20260504020331 48 9 0.0 0.0 0.00 0.00 0.00 79 1018.8
20260504015826 48 9 0.0 0.0 0.00 0.00 0.00 78 1018.6
20260504015323 49 9 0.0 0.0 0.00 0.00 0.00 78 1018.5
20260504014819 49 9 0.0 0.0 0.00 0.00 0.00 77 1018.6
20260504014315 49 9 0.0 0.0 0.00 0.00 0.00 77 1018.4
20260504013813 49 9 0.0 0.0 0.00 0.00 0.00 76 1018.4
20260504013311 50 9 0.0 0.0 0.00 0.00 0.00 76 1018.6
20260504012807 50 9 0.0 0.0 0.00 0.00 0.00 74 1018.4
20260504012305 50 9 0.0 0.0 0.00 0.00 0.00 74 1018.4
20260504011802 51 9 0.0 0.0 0.00 0.00 0.00 72 1018.2
20260504011258 51 9 0.0 0.0 0.00 0.00 0.00 72 1018.2
20260504010754 52 9 0.0 0.0 0.00 0.00 0.00 70 1018.1
20260504010250 52 9 0.0 0.0 0.00 0.00 0.00 69 1017.9
20260504005747 53 9 0.0 0.0 0.00 0.00 0.00 68 1018.1
20260504005244 53 9 0.0 0.0 0.00 0.00 0.00 66 1018.0
20260504004742 53 9 0.0 0.0 0.00 0.00 0.00 63 1017.9
20260504004239 54 9 0.0 0.0 0.00 0.00 0.00 64 1018.0
20260504003735 54 9 0.0 0.0 0.00 0.00 0.00 61 1017.8
20260504003232 55 9 0.0 0.0 0.00 0.00 0.00 59 1017.6
20260504002729 55 9 0.0 0.0 0.00 0.00 0.00 61 1017.7
20260504002226 56 9 0.0 0.0 0.00 0.00 0.00 60 1017.8
20260504001724 56 9 0.0 0.0 0.00 0.00 0.00 58 1017.5
20260504001221 57 9 0.0 0.0 0.00 0.00 0.00 55 1017.6
20260504000717 57 9 0.0 0.0 0.00 0.00 0.00 55 1017.7
20260504000214 57 9 0.0 0.0 0.00 0.00 0.00 54 1017.6
20260503235713 58 9 0.0 0.0 0.00 0.00 0.00 53 1017.7
20260503235209 58 9 0.0 0.0 0.00 0.00 0.00 55 1017.6
20260503234706 59 9 0.0 1.0 0.00 0.00 0.00 50 1017.7
20260503234205 59 9 0.0 0.0 0.00 0.00 0.00 55 1017.7
20260503233702 59 9 0.0 0.0 0.00 0.00 0.00 51 1017.7
20260503233157 60 9 0.0 0.0 0.00 0.00 0.00 52 1017.6
20260503232654 60 9 0.0 0.0 0.00 0.00 0.00 52 1017.9
20260503232151 60 9 0.0 0.0 0.00 0.00 0.00 50 1017.5
20260503231650 60 9 0.0 0.0 0.00 0.00 0.00 51 1017.6
20260503231145 61 9 0.0 0.0 0.00 0.00 0.00 50 1017.5
20260503230642 61 9 0.0 2.0 0.00 0.00 0.00 46 1017.5
20260503230140 61 9 0.0 1.0 0.00 0.00 0.00 48 1017.7
20260503225637 62 9 0.0 0.0 0.00 0.00 0.00 45 1017.4
20260503225137 62 9 0.0 0.0 0.00 0.00 0.00 43 1017.5
20260503224634 62 9 1.0 2.0 0.00 0.00 0.00 44 1017.5
20260503224132 62 9 1.0 2.0 0.00 0.00 0.00 43 1017.5
20260503223630 62 9 1.0 2.0 0.00 0.00 0.00 43 1017.6
20260503223126 63 9 0.0 1.0 0.00 0.00 0.00 43 1017.2
20260503222623 63 9 0.0 1.0 0.00 0.00 0.00 41 1017.6
20260503222121 63 9 0.0 1.0 0.00 0.00 0.00 42 1017.2
20260503221619 63 9 0.0 1.0 0.00 0.00 0.00 42 1017.5
20260503221116 64 9 0.0 1.0 0.00 0.00 0.00 41 1017.4
20260503220613 64 9 1.0 2.0 0.00 0.00 0.00 40 1017.6
20260503220110 64 9 0.0 1.0 0.00 0.00 0.00 42 1017.6
20260503215607 65 9 1.0 2.0 0.00 0.00 0.00 41 1017.5
20260503215103 65 9 0.0 1.0 0.00 0.00 0.00 43 1017.5
20260503214602 65 9 0.0 0.0 0.00 0.00 0.00 40 1017.6
20260503214058 66 9 0.0 0.0 0.00 0.00 0.00 43 1017.5
20260503213557 66 9 0.0 1.0 0.00 0.00 0.00 40 1017.8
20260503213053 66 9 0.0 1.0 0.00 0.00 0.00 40 1017.6
20260503212550 66 9 1.0 2.0 0.00 0.00 0.00 42 1017.6
20260503212048 66 9 1.0 2.0 0.00 0.00 0.00 41 1017.7
20260503211545 67 9 1.0 2.0 0.00 0.00 0.00 40 1017.8
20260503211040 67 9 1.0 2.0 0.00 0.00 0.00 42 1017.8
20260503210537 67 9 0.0 2.0 0.00 0.00 0.00 41 1017.9
20260503210033 67 9 1.0 2.0 0.00 0.00 0.00 42 1017.9
20260503205530 67 9 0.0 1.0 0.00 0.00 0.00 43 1017.7
20260503205026 66 9 1.0 2.0 0.00 0.00 0.00 43 1017.8
20260503204523 66 9 2.0 2.0 0.00 0.00 0.00 42 1017.8
20260503204020 66 9 0.0 2.0 0.00 0.00 0.00 41 1017.9
20260503203517 66 9 0.0 0.0 0.00 0.00 0.00 41 1018.0
20260503203014 67 9 0.0 1.0 0.00 0.00 0.00 41 1018.1
20260503202512 68 9 1.0 1.0 0.00 0.00 0.00 42 1018.2
20260503202010 67 9 0.0 2.0 0.00 0.00 0.00 43 1018.2
20260503201508 66 9 0.0 1.0 0.00 0.00 0.00 45 1018.1
20260503201005 66 9 1.0 1.0 0.00 0.00 0.00 40 1018.2
20260503200501 67 9 1.0 2.0 0.00 0.00 0.00 41 1018.5
20260503195957 67 9 0.0 1.0 0.00 0.00 0.00 41 1018.7
20260503195455 68 9 0.0 2.0 0.00 0.00 0.00 37 1018.8
20260503194951 67 9 0.0 2.0 0.00 0.00 0.00 39 1018.7
20260503194449 68 8 1.0 1.0 0.00 0.00 0.00 39 1018.7
20260503193944 67 9 1.0 1.0 0.00 0.00 0.00 39 1018.9
20260503193439 66 9 1.0 3.0 0.00 0.00 0.00 40 1018.9
20260503192935 66 9 1.0 2.0 0.00 0.00 0.00 38 1018.9
20260503192432 66 9 1.0 1.0 0.00 0.00 0.00 39 1019.1
20260503191927 66 9 0.0 1.0 0.00 0.00 0.00 38 1018.9
20260503191425 65 9 0.0 0.0 0.00 0.00 0.00 39 1019.0
20260503190921 64 9 0.0 2.0 0.00 0.00 0.00 41 1019.3
20260503190419 65 9 0.0 2.0 0.00 0.00 0.00 40 1019.4
20260503185916 64 8 2.0 2.0 0.00 0.00 0.00 41 1019.2
20260503185412 64 9 0.0 1.0 0.00 0.00 0.00 39 1019.4
20260503184911 65 9 0.0 3.0 0.00 0.00 0.00 38 1019.4
20260503184408 66 9 0.0 1.0 0.00 0.00 0.00 40 1019.6
20260503183905 65 8 0.0 1.0 0.00 0.00 0.00 41 1019.6
20260503183401 64 8 0.0 1.0 0.00 0.00 0.00 39 1019.6
20260503182858 64 8 0.0 2.0 0.00 0.00 0.00 38 1019.4
20260503182357 64 9 1.0 2.0 0.00 0.00 0.00 39 1019.7
20260503181853 64 9 0.0 1.0 0.00 0.00 0.00 39 1019.6
20260503181351 63 8 0.0 2.0 0.00 0.00 0.00 39 1019.8
20260503180847 63 8 1.0 1.0 0.00 0.00 0.00 40 1019.8
20260503180345 62 8 0.0 2.0 0.00 0.00 0.00 40 1019.8
20260503175842 63 8 2.0 2.0 0.00 0.00 0.00 40 1019.9
20260503175340 62 8 1.0 2.0 0.00 0.00 0.00 40 1019.9
20260503174835 62 8 1.0 3.0 0.00 0.00 0.00 42 1019.8
20260503174333 62 8 1.0 2.0 0.00 0.00 0.00 40 1019.9
20260503173828 62 8 1.0 1.0 0.00 0.00 0.00 41 1019.8
20260503173325 62 8 0.0 1.0 0.00 0.00 0.00 41 1019.9
20260503172822 62 8 0.0 1.0 0.00 0.00 0.00 46 1020.3
20260503172319 62 8 1.0 1.0 0.00 0.00 0.00 45 1020.3
20260503171815 62 9 0.0 2.0 0.00 0.00 0.00 44 1020.6
20260503171312 61 8 1.0 1.0 0.00 0.00 0.00 45 1020.2
20260503170809 61 8 0.0 2.0 0.00 0.00 0.00 45 1020.5
20260503170306 60 8 1.0 2.0 0.00 0.00 0.00 45 1020.5
20260503150658 53 134 0.0 1.0 0.00 0.00 0.00 57 1021.3
20260503150154 53 136 1.0 2.0 0.00 0.00 0.00 57 1021.4
20260503140119 50 101 1.0 1.0 0.00 0.00 0.00 74 1021.4
20260503131048 46 100 0.0 0.0 0.00 0.00 0.00 89 1021.2
20260503130545 45 100 0.0 0.0 0.00 0.00 0.00 91 1021.3
20260503110436 36 99 0.0 0.0 0.00 0.00 0.00 94 1020.1
20260503090321 37 99 0.0 0.0 0.00 0.00 0.00 93 1019.4